When you browse on this site, cookies collect data to enhance your experience and personalize the content and advertising you see.
Visit our Privacy Policy to learn more. By continuing to use the site, you agree to this use of cookies and data.
  • In Hungary
  • List of Countries
  • For 7 days
  • Water Temperature
  • Satellite Maps
  • Weather Map
  • News
  • Weather Widgets
  • user-avatar
    Login

    Hourly Weather Canillo

    Today, 10 December, Monday

    Time Temperature Precipitation Wind Pressure Humidity
    00:00 -2°C° 0 mm 3 mps 624 mmHg 66%
    01:00 -2°C° 0 mm 3 mps 624 mmHg 64%
    02:00 -2°C° 0 mm 3 mps 624 mmHg 62%
    03:00 -2°C° 0 mm 3 mps 624 mmHg 61%
    04:00 -2°C° 0 mm 3 mps 624 mmHg 60%
    05:00 -2°C° 0 mm 3 mps 624 mmHg 59%
    06:00 -4°C° 0 mm 3 mps 623 mmHg 58%
    07:00 -2°C° 0 mm 3 mps 624 mmHg 56%
    08:00 -1°C° 0 mm 3 mps 625 mmHg 53%
    09:00 +1°C° 0 mm 2 mps 625 mmHg 51%
    10:00 +2°C° 0 mm 3 mps 625 mmHg 50%
    11:00 +3°C° 0 mm 3 mps 626 mmHg 48%
    12:00 +4°C° 0 mm 3 mps 626 mmHg 47%
    13:00 +5°C° 0 mm 2 mps 626 mmHg 51%
    14:00 +4°C° 0 mm 2 mps 625 mmHg 55%
    15:00 +4°C° 0 mm 2 mps 625 mmHg 59%
    16:00 +2°C° 0 mm 2 mps 624 mmHg 66%
    17:00 +1°C° 0 mm 2 mps 623 mmHg 73%
    18:00 -2°C° 0 mm 2 mps 623 mmHg 80%
    19:00 -2°C° 0 mm 2 mps 622 mmHg 78%
    20:00 -2°C° 0 mm 2 mps 622 mmHg 76%
    21:00 -2°C° 0 mm 2 mps 622 mmHg 74%
    22:00 -2°C° 0 mm 2 mps 622 mmHg 72%
    23:00 -2°C° 0 mm 2 mps 622 mmHg 70%

    Tomorrow, 11 December, Tuesday

    Time Temperature Precipitation Wind Pressure Humidity
    00:00 -2°C° 0 mm 2 mps 622 mmHg 68%
    01:00 -1°C° 0 mm 1 mps 621 mmHg 68%
    02:00 -1°C° 0 mm 1 mps 621 mmHg 68%
    03:00 -1°C° 0 mm 1 mps 620 mmHg 68%
    04:00 -1°C° 0 mm 1 mps 620 mmHg 67%
    05:00 -1°C° 0 mm 1 mps 620 mmHg 67%
    06:00 -1°C° 0 mm 1 mps 619 mmHg 66%
    07:00 0°C° 0 mm 1 mps 620 mmHg 63%
    08:00 +2°C° 0 mm 1 mps 620 mmHg 59%
    09:00 +3°C° 0 mm 1 mps 621 mmHg 55%
    10:00 +4°C° 0 mm 1 mps 621 mmHg 52%
    11:00 +6°C° 0 mm 1 mps 621 mmHg 48%
    12:00 +7°C° 0 mm 1 mps 621 mmHg 45%
    13:00 +7°C° 0 mm 1 mps 621 mmHg 49%
    14:00 +6°C° 0 mm 1 mps 620 mmHg 53%
    15:00 +5°C° 0 mm 1 mps 620 mmHg 58%
    16:00 +4°C° 0 mm 1 mps 619 mmHg 63%
    17:00 +2°C° 0 mm 1 mps 619 mmHg 68%
    18:00 -1°C° 0 mm 2 mps 618 mmHg 73%
    19:00 -1°C° 0 mm 2 mps 618 mmHg 69%
    20:00 -1°C° 0 mm 2 mps 619 mmHg 66%
    21:00 -1°C° 0 mm 2 mps 619 mmHg 62%
    22:00 -1°C° 0 mm 2 mps 619 mmHg 61%
    23:00 -1°C° 0 mm 2 mps 619 mmHg 59%

    Day after tomorrow, 12 December, Wednesday

    Time Temperature Precipitation Wind Pressure Humidity
    00:00 -1°C° 0 mm 2 mps 619 mmHg 58%
    01:00 -1°C° 0 mm 2 mps 619 mmHg 58%
    02:00 -2°C° 0 mm 2 mps 619 mmHg 58%
    03:00 -2°C° 0 mm 2 mps 618 mmHg 59%
    04:00 -2°C° 0 mm 2 mps 618 mmHg 59%
    05:00 -2°C° 0 mm 2 mps 618 mmHg 58%
    06:00 -2°C° 0 mm 2 mps 618 mmHg 58%
    07:00 -1°C° 0 mm 2 mps 619 mmHg 58%
    08:00 +2°C° 0 mm 1 mps 619 mmHg 57%
    09:00 +3°C° 0 mm 1 mps 620 mmHg 57%
    10:00 +4°C° 0 mm 1 mps 620 mmHg 56%
    11:00 +5°C° 0 mm 1 mps 620 mmHg 56%
    12:00 +6°C° 0 mm 1 mps 620 mmHg 55%
    13:00 +6°C° 0 mm 1 mps 619 mmHg 61%
    14:00 +5°C° 0 mm 1 mps 619 mmHg 67%
    15:00 +4°C° 0 mm 1 mps 618 mmHg 73%
    16:00 +3°C° 0 mm 1 mps 617 mmHg 78%
    17:00 +2°C° 0 mm 1 mps 617 mmHg 84%
    18:00 0°C° 0 mm 0 mps 616 mmHg 89%
    19:00 -1°C° 0 mm 0 mps 616 mmHg 88%
    20:00 -1°C° 0 mm 0 mps 616 mmHg 88%
    21:00 -1°C° 0 mm 0 mps 616 mmHg 87%
    22:00 -1°C° 0 mm 0 mps 616 mmHg 87%
    23:00 0°C° 0 mm 1 mps 616 mmHg 86%

    13 December, Thursday

    Time Temperature Precipitation Wind Pressure Humidity
    00:00 +1°C° 0 mm 1 mps 616 mmHg 86%
    01:00 0°C° 0 mm 1 mps 615 mmHg 87%
    02:00 -1°C° 0 mm 0 mps 615 mmHg 89%
    03:00 -1°C° 0 mm 0 mps 614 mmHg 90%
    04:00 0°C° 0 mm 1 mps 614 mmHg 89%
    05:00 0°C° 0 mm 1 mps 614 mmHg 88%
    06:00 0°C° 0 mm 1 mps 615 mmHg 87%
    07:00 +1°C° 0 mm 1 mps 615 mmHg 82%
    08:00 +2°C° 0 mm 1 mps 616 mmHg 77%
    09:00 +3°C° 0 mm 1 mps 616 mmHg 72%
    10:00 +4°C° 0 mm 1 mps 616 mmHg 68%
    11:00 +5°C° 0 mm 1 mps 617 mmHg 64%
    12:00 +5°C° 0 mm 2 mps 617 mmHg 60%
    13:00 +4°C° 0.2 mm 2 mps 617 mmHg 66%
    14:00 +3°C° 0.2 mm 2 mps 617 mmHg 71%
    15:00 +3°C° 0.2 mm 2 mps 616 mmHg 77%
    16:00 +2°C° 0.2 mm 2 mps 616 mmHg 82%
    17:00 +1°C° 0.2 mm 2 mps 616 mmHg 86%
    18:00 +1°C° 0.2 mm 2 mps 616 mmHg 91%
    19:00 -1°C° 0.1 mm 2 mps 616 mmHg 91%
    20:00 -1°C° 0.1 mm 2 mps 617 mmHg 92%
    21:00 -2°C° 0.1 mm 2 mps 617 mmHg 92%
    22:00 -2°C° 0 mm 2 mps 617 mmHg 91%
    23:00 -2°C° 0 mm 2 mps 617 mmHg 91%

    14 December, Friday

    Time Temperature Precipitation Wind Pressure Humidity
    00:00 -2°C° 0 mm 2 mps 617 mmHg 90%
    01:00 0°C° 0 mm 1 mps 617 mmHg 89%
    02:00 0°C° 0 mm 1 mps 617 mmHg 87%
    03:00 -1°C° 0 mm 1 mps 616 mmHg 86%
    04:00 -1°C° 0 mm 1 mps 616 mmHg 84%
    05:00 0°C° 0 mm 1 mps 616 mmHg 82%
    06:00 0°C° 0 mm 1 mps 616 mmHg 80%
    07:00 0°C° 0 mm 1 mps 617 mmHg 77%
    08:00 +1°C° 0 mm 1 mps 617 mmHg 74%
    09:00 +2°C° 0 mm 1 mps 618 mmHg 70%
    10:00 +3°C° 0.5 mm 1 mps 618 mmHg 73%
    11:00 +3°C° 0.5 mm 1 mps 618 mmHg 75%
    12:00 +4°C° 0.5 mm 1 mps 618 mmHg 78%
    13:00 +4°C° 0 mm 1 mps 619 mmHg 77%
    14:00 +5°C° 0 mm 1 mps 619 mmHg 76%
    15:00 +5°C° 0 mm 2 mps 619 mmHg 76%
    16:00 +4°C° 0 mm 2 mps 619 mmHg 79%
    17:00 +3°C° 0 mm 2 mps 619 mmHg 82%
    18:00 +1°C° 0 mm 2 mps 618 mmHg 84%
    19:00 +1°C° 0 mm 2 mps 618 mmHg 80%
    20:00 0°C° 0 mm 3 mps 619 mmHg 76%
    21:00 -1°C° 0 mm 3 mps 619 mmHg 72%
    22:00 -1°C° 0 mm 3 mps 619 mmHg 69%
    23:00 -1°C° 0 mm 3 mps 619 mmHg 67%

    15 December, Saturday

    Time Temperature Precipitation Wind Pressure Humidity
    00:00 -1°C° 0 mm 3 mps 619 mmHg 64%
    01:00 -1°C° 0 mm 3 mps 619 mmHg 63%
    02:00 -1°C° 0 mm 3 mps 619 mmHg 62%
    03:00 -1°C° 0 mm 3 mps 620 mmHg 61%
    04:00 -1°C° 0 mm 3 mps 620 mmHg 60%
    05:00 -1°C° 0 mm 2 mps 620 mmHg 60%
    06:00 -1°C° 0 mm 2 mps 620 mmHg 59%
    07:00 +1°C° 0 mm 2 mps 621 mmHg 56%
    08:00 +2°C° 0 mm 2 mps 622 mmHg 54%
    09:00 +3°C° 0 mm 2 mps 623 mmHg 51%
    10:00 +6°C° 0 mm 1 mps 624 mmHg 48%
    11:00 +8°C° 0 mm 1 mps 624 mmHg 45%
    12:00 +10°C° 0 mm 1 mps 625 mmHg 42%
    13:00 +9°C° 0 mm 1 mps 624 mmHg 46%
    14:00 +9°C° 0 mm 1 mps 624 mmHg 51%
    15:00 +8°C° 0 mm 1 mps 623 mmHg 56%
    16:00 +7°C° 0 mm 1 mps 623 mmHg 58%
    17:00 +5°C° 0 mm 1 mps 622 mmHg 60%
    18:00 +4°C° 0 mm 1 mps 622 mmHg 61%
    19:00 +4°C° 0 mm 1 mps 622 mmHg 59%
    20:00 +4°C° 0 mm 1 mps 622 mmHg 56%
    21:00 +4°C° 0 mm 1 mps 622 mmHg 54%
    22:00 +4°C° 0 mm 1 mps 622 mmHg 53%
    23:00 +4°C° 0 mm 1 mps 622 mmHg 51%
    Show more